Home > Weather > Cambridge > Past weeks

Flag for USA Past Weather in Cambridge, Massachusetts, USA — Yesterday and Last 2 Weeks

Now
73 °F

Overcast.


Feels Like: 73 °F
Forecast: 72 / 88 °F
Wind: 7 mph from South

Location: Logan International Airport

Current Time: Aug 26, 2016 at 3:07:50 AM

Latest Report: Aug 26, 2016 at 1:54 AM


Visibility: 10 mi

Pressure: 29.96 "Hg

Humidity: 81%

Dew Point: 67 °F

Location of CambridgeLocation

Past Weather in Cambridge — Graph

°F

Cambridge Temperature Yesterday

Maximum temperature yesterday: 87 °F (at 12:54 PM)
Minimum temperature yesterday: 68 °F (at 4:54 AM)
Average temperature yesterday: 78 °F

High & Low Weather Summary for the Past Weeks

 TemperatureHumidityPressure
High97 °F (Aug 12, 2:54 PM)100% (Aug 11, 3:54 AM)30.27 "Hg (Aug 11, 3:54 AM)
Low61 °F (Aug 23, 4:54 AM)29% (Aug 23, 2:54 PM)29.72 "Hg (Aug 22, 3:54 AM)
Average77 °F67%29.99 "Hg
* Reported Aug 11 1:54 AM — Aug 26 1:54 AM, Cambridge, Weather by CustomWeather, © 2016

Note: Actual official high and low records may vary slightly from our data, if they occured in-between our weather recording intervals... More about our weather records

Advertising

Cambridge Weather History for the Previous 24 Hours

Scroll right to see more
 ConditionsComfort  
Time TempWeatherWind HumidityBarometerVisibility
1:54 AM
Fri, Aug 26
73 °FOvercast.7 mph81%29.96 "Hg10 mi
12:54 AM74 °FPartly cloudy.9 mph76%29.96 "Hg10 mi
11:54 PM
Thu, Aug 25
75 °FOvercast.13 mph74%29.97 "Hg10 mi
10:54 PM75 °FOvercast.10 mph71%29.98 "Hg10 mi
9:54 PM77 °FMostly cloudy.15 mph66%29.98 "Hg10 mi
8:54 PM78 °FPassing clouds.12 mph64%29.99 "Hg10 mi
7:54 PM80 °FBroken clouds.16 mph62%29.98 "Hg10 mi
6:54 PM80 °FBroken clouds.12 mph62%29.98 "Hg10 mi
5:54 PM83 °FPartly sunny.16 mph55%29.97 "Hg10 mi
4:54 PM87 °FPartly sunny.21 mph43%29.96 "Hg10 mi
3:54 PM87 °FPartly sunny.16 mph43%29.97 "Hg10 mi
2:54 PM85 °FBroken clouds.20 mph43%29.99 "Hg10 mi
1:54 PM87 °FBroken clouds.16 mph42%30.01 "Hg10 mi
12:54 PM87 °FBroken clouds.16 mph43%30.03 "Hg10 mi
11:54 AM85 °FPartly sunny.17 mph48%30.03 "Hg10 mi
10:54 AM83 °FPartly sunny.20 mph51%30.06 "Hg10 mi
9:54 AM80 °FScattered clouds.18 mph58%30.07 "Hg10 mi
8:54 AM76 °FScattered clouds.14 mph69%30.09 "Hg10 mi
7:54 AM72 °FPassing clouds.12 mph81%30.10 "Hg10 mi
6:54 AM68 °FPassing clouds.12 mph90%30.10 "Hg10 mi
5:54 AM68 °FPassing clouds.12 mph90%30.10 "Hg10 mi
4:54 AM68 °FPassing clouds.8 mph90%30.09 "Hg10 mi
3:54 AM69 °FClear.12 mph84%30.10 "Hg10 mi
Weather by CustomWeather, © 2016

See weather overviewHow to use our weather pages